Date,TemperatureHighF,TemperatureAvgF,TemperatureLowF,DewpointHighF,DewpointAvgF,DewpointLowF,HumidityHigh,HumidityAvg,HumidityLow,PressureMaxIn,PressureMinIn,WindSpeedMaxMPH,WindSpeedAvgMPH,GustSpeedMaxMPH,PrecipitationSumIn
2013-4-1,58,50,45,50,45,39,94,83,63,30.11,29.95,6,2,10,0.00
2013-4-2,55,49,45,47,45,44,94,86,69,30.20,30.11,5,1,7,0.00
2013-4-3,55,50,46,49,46,43,93,84,73,30.19,29.97,5,1,6,0.00
2013-4-4,52,49,48,52,47,44,99,93,79,29.96,29.56,4,1,8,0.00
2013-4-5,58,51,47,52,49,45,99,93,78,29.82,29.63,4,1,11,0.00
2013-4-6,57,50,44,47,43,39,94,80,55,29.87,29.59,8,2,15,0.00
2013-4-7,50,45,42,48,44,41,98,96,89,29.85,29.56,6,1,8,0.00
2013-4-8,56,48,44,48,45,43,98,90,71,30.24,29.86,4,1,6,0.00
2013-4-9,51,47,44,46,44,42,96,92,78,30.33,30.11,6,1,7,0.00
2013-4-10,55,49,46,50,45,42,98,87,72,30.21,29.85,9,2,19,0.00
2013-4-11,55,47,41,44,40,36,93,79,54,30.29,30.17,4,1,9,0.00
2013-4-12,44,42,40,43,39,35,100,92,80,30.17,29.65,8,1,16,0.00
2013-4-13,50,43,38,44,40,32,97,87,74,29.98,29.71,4,1,9,0.00
2013-4-14,53,44,39,44,40,37,100,86,60,30.00,29.93,3,0,5,0.00
2013-4-15,56,46,41,46,42,37,96,85,65,30.18,29.93,6,1,10,0.00
2013-4-16,60,48,40,46,38,32,93,70,43,30.38,30.18,5,1,8,0.00
2013-4-17,57,49,43,46,41,33,88,74,54,30.43,30.38,6,2,10,0.00
2013-4-18,48,46,43,47,44,40,99,95,80,30.43,30.17,3,0,10,0.00
2013-4-19,58,50,47,54,49,45,99,96,82,30.17,30.05,10,1,15,0.00
2013-4-20,60,51,46,48,44,42,94,80,60,30.23,30.15,7,1,13,0.00
2013-4-21,52,47,42,45,42,39,94,82,64,30.39,30.21,7,1,13,0.00
2013-4-22,60,49,42,44,36,21,92,64,35,30.57,30.39,5,2,9,0.00
2013-4-23,59,50,43,45,39,27,84,68,46,30.43,30.27,5,1,7,0.00
2013-4-24,66,52,44,46,42,38,94,69,41,30.33,30.05,3,0,5,0.00
2013-4-25,67,53,47,48,45,40,91,73,49,30.11,30.04,9,2,10,0.00
2013-4-26,60,50,44,48,45,43,97,83,56,30.25,30.11,9,4,11,0.00
2013-4-27,53,50,48,50,46,43,92,87,78,30.19,30.11,8,2,13,0.00
2013-4-28,56,49,44,44,42,39,95,76,58,30.19,29.91,4,1,11,0.00
2013-4-29,56,47,41,44,40,35,97,78,47,30.14,29.91,6,2,13,0.00
2013-4-30,58,47,42,40,37,33,88,69,43,30.43,30.14,8,2,8,0.00